Showing default

FENGYUN 3E, 49008

Orbit data source: Space-Track

FENGYUN 3E, 49008 is a payload satellite owned by CNMSC (CN) in SSO that was launched on Sun, 04 Jul 2021 UTC via a CHANG ZHENG 4C launch vehicle from the Jiuquan Satellite Launch Center, China (JSC). Payload-class satellites include a variety of spacecraft equipped with specific instruments for various scientific and technological missions. These include communications satellites like Starlink; space stations such as the ISS; scientific satellites like the Hubble; Earth observation satellites from companies like Planet Labs, Umbra, and HawkEye 360; GPS; miniature CubeSats for education and research; and military/defense satellites.

Loading next visibility...
Identifier
49008, 2021-062A
Orbit
SSO
Country
Flag of CNCN / PRC
Related business
Manufacturer
SISE
Mission
Operational Civil Weather
Bus & Motor
FY-3, Unknown motor
Mass
2,450 kg wet, 2,250 kg dry
Launch date (UTC)
2021-07-04 (5 years ago)
Launch vehicle
CHANG ZHENG 4C
Launch site
Jiuquan Satellite Launch Center, China (JSC)
Object type
Payload
Rocket body
Debris
Shape & HBR
Box + 2 Pan, 5.0 m
Radar Cross Section
15.104 m², Large (>1 m²)

Expand to show TLE details & history
Last TLE update: 23 hours ago

TLE from 23 hours ago
0 FENGYUN 3E
1 49008U 21062A   26172.50017913  .00000183  00000-0  10675-3 0  9990
2 49008  98.7495 175.8605 0002823  78.9678 281.1816 14.19904829257195
Epoch: 2026-06-21T12:00Z
TLE epoch observation values (Epoch: 2026-06-21T12:00:15.476Z)
Latitude
-0.00002°
Longitude
86.09646°
Altitude
828.194 km
Speed
7.439 km/s
True Right ascension
11h 43m 26s
True Declination
0° 00' 00"
Sunlit
Object was in daylight at epoch
Visualization orbit readout
Latitude
Unknown
Longitude
Unknown
Altitude
Unknown
Speed
Unknown
Apparent Right ascension
Unknown
Apparent Declination
Unknown
Sunlit
N/A
Visualization observer readout
Local Sidereal Time
21:38:25
Azimuth
Unknown
Elevation
Unknown
Doppler factor
Unknown
Orbital elements
Apogee altitude
824.868 km
Perigee altitude
820.802 km
Semi-major axis
7,200.972 km
Eccentricity
0.00028
Inclination
98.7495°
RAAN
175.8605°
Arg. of periapsis
78.9678°
True anomaly
281.14986°
Mean anomaly
281.1816°
Eccentric anomaly
281.16573°
Mean motion
3.55187 °/min
Orbital period
101.36 mins
BSTAR
0.00010675
Loading maneuver chart data...
Computing Atmospheric mass density...
Loading historical data...
Loading historical data...
Loading historical data...
Loading historical data...
Loading historical data...
Loading historical data...
Loading historical data...
Other satellites on launch #62 in the year 2021 (2021-07-04 UTC)

Documentation

Showing up to 5 results
|